SMOG-P (44832 NORAD) Tracking and Keplerian Element Data

This shows tracking and keplerian element data for the satellite.

Feedback or suggestion? Click here.




ElementValue
Catalog44832
NameSMOG-P
Epoch Orbit1856
Epoch Day93.89306815
Epoch Year2020
RAAN322.7139
Inclination96.9885
Eccentricity0.0033026
Argument of Perigee162.8224
Mean Anonmoly197.4167
Mean Motion15.7203132
Decay Rate0.00040524
L11 44832U 19084J 20093.89306815 .00040524 00000-0 30037-3 0 9998
L22 44832 96.9885 322.7139 0033026 162.8224 197.4167 15.72031320 18563

Live tracking and technical data element details for SMOG-P (NORAD 44832). SMOG-P can be tracked NOW for your location showing map with azimuth and elevation plus other details from your city location.

Track the satellite on the map from your city or location and see movement details for azimuth, elevation, latitude, longitude, range, height, and movement on the map or in text.







IsCatalogInMostPopularTable: catalog: 44832, numindb: 47
Update: records affected: 1



GetName: 44832 SMOG-P

Hit Count: updated at: Sun, 05 Apr 2020 20:24:51 GMT